Tracking 19242 objects as of 15-Aug-2018
HD Live streaming from Space Station
objects crossing your sky now

FENGYUN 1C DEB

Track FENGYUN 1C DEB now!
10-day predictions


NORAD ID: 32410
Int'l Code: 1999-025CZW
Perigee: 510.6 km
Apogee: 624.9 km
Inclination: 97.8 °
Period: 95.9 minutes
Semi major axis: 6938 km
RCS: 0.0096 m2 (small)
Launch date: May 10, 1999
Source: People's Republic of China (PRC)
Launch site: Taiyaun Space Center, China (TSC)

Note: This is SATELLITE DEBRIS
aabbcc
Your satellite tracking list
Your tracking list is empty




NASA's NSSDC Master Catalog

Two Line Element Set (TLE):
1 32410U 99025CZW 18202.04464611  .00011148  00000-0  79388-3 0  9997
2 32410  97.8333  55.8068 0082390 238.8039 120.5594 15.02038992572012
Source of the keplerian elements: AFSPC